Location: NJAA Observatory
(40.6819°N, 74.8979°W)
Time: 03:01:45
(UTC-04:00)

Landsat 5 - Visible Passes

Search period start: 03 September 2014 00:00
Search period end: 13 September 2014 00:00
Orbit: 536 x 667 km, 98.1° (Epoch: 02 September)

Date Brightness Start Highest point End Pass type
(mag) Time Alt. Az. Time Alt. Az. Time Alt. Az.
03 Sep 6.7 00:00:48 12° NNW 00:00:48 12° NNW 00:01:09 10° NNW visible
03 Sep 6.1 22:35:49 15° NNE 22:35:49 15° NNE 22:36:48 10° N visible
04 Sep 6.2 22:47:37 16° NNE 22:47:37 16° NNE 22:48:37 10° N visible
05 Sep 6.3 22:59:25 16° N 22:59:25 16° N 23:00:21 10° N visible
06 Sep 6.4 23:11:13 15° N 23:11:13 15° N 23:12:01 10° N visible
07 Sep 6.5 23:23:02 14° N 23:23:02 14° N 23:23:38 10° N visible
08 Sep 6.7 23:34:50 12° NNW 23:34:50 12° NNW 23:35:12 10° NNW visible
09 Sep 6.9 23:46:38 10° NNW 23:46:38 10° NNW 23:46:42 10° NNW visible
10 Sep 6.5 22:21:39 10° NNE 22:21:39 10° NNE 22:21:43 10° NNE visible
11 Sep 6.5 22:33:27 11° NNE 22:33:27 11° NNE 22:33:37 10° NNE visible
12 Sep 6.6 22:45:16 11° N 22:45:16 11° N 22:45:26 10° N visible
